Погода в Ыбе

Россия / Республика Коми     61°16′23″N   50°34′35″E
темп.,
°C
ветер,
м/с
пор.,
м/с
влажн.,
%
обл.,
%
осадки,
мм/ч
давл.,
гПа
погр.,
м
24 января, пн
пн2400:00−14ююз389886 0.1 1030155
03:00−17ююз389993 0.1 1031154
06:00−17ююз389886 0.0 1030170
09:00−16ююз41196100 0.0 1029255
12:00−11ююз4149294 0.0 1028416
15:00−9юз51489100 0.0 1026549
18:00−8юз51589100 0.0 1025638
21:00−7юз51589100 0.2 1023623
25 января, вт
вт2500:00−8юз51587100 0.0 1021592
03:00−8юз51684100 0.0 1020569
06:00−7юз6168387 0.0 1019563
09:00−8ююз61681100 0.0 1018563
12:00−8ююз51581100 0.0 1017592
15:00−8ююз51581100 0.0 1016603
18:00−9ююз5158331 0.0 1016567
21:00−10ююз514885 0.0 1015500
26 января, ср
ср2600:00−11ююз4139278 0.0 1016437
03:00−13ююз4129298 0.0 1015369
06:00−13ююз41193100 0.0 1015380
09:00−13ююз31093100 0.0 1015377
12:00−11ююз3893100 0.0 1015400
15:00−10ююз2795100 0.1 1015411
18:00−10ю269696 0.4 1015335
21:00−11ю2597100 0.7 1015152
27 января, чт
чт2700:00−12ю1497100 0.3 1015118
03:00−13ю1397100 0.5 101477
06:00−14ю119887 0.3 101436
09:00−16юз1110078 0.3 101519
12:00−12юз139595 0.0 1015167
15:00−15ююз119973 0.1 10169
18:00−20ююз11100100 0.0 10179
21:00−24ююз11100100 0.1 10179
28 января, пт
пт2800:00−25ю11100100 0.0 10179
03:00−24ю11100100 0.1 101810
06:00−22ю12100100 0.0 101747
09:00−18ююв2799100 0.1 1017139
12:00−14ю2694100 0.0 1016244
15:00−13ююв3795100 0.0 1016292
18:00−14ююв3895100 0.0 1016283
21:00−14ююв3995100 0.0 1016266